Simultaneous Nadir Overpasses (SNOs) Predictions

Prediction of SNOs between GOES-16 and LANDSAT-8 Satellite Orbit:

Table of predicted SNOs for the next 14.0 days since TLE Epoch: 6/15/2022
Index Date Time (GOES-16) GOES-16 Lat,Lon LANDSAT-8 Lat,Lon Distance(km) Time Diff (sec)
1 06/16/2022 15:12:46 0.03, -75.21 0.07, -75.42 23.41 80
2 06/18/2022 15:03:16 0.03, -75.22 -0.59, -72.47 313.37 80
3 06/19/2022 03:24:40 -0.02, -75.20 -0.55, -77.65 278.70 80
4 06/21/2022 03:09:49 -0.02, -75.22 0.06, -74.69 59.53 80
5 06/23/2022 02:57:39 -0.02, -75.24 0.74, -71.74 398.54 80
6 06/23/2022 15:18:54 0.02, -75.27 0.39, -76.89 185.11 80
7 06/25/2022 15:09:23 0.02, -75.30 -0.24, -73.93 154.75 80
8 06/26/2022 03:30:48 -0.02, -75.29 -0.82, -79.13 436.40 80
9 06/27/2022 14:57:12 0.02, -75.33 -0.88, -70.98 494.80 80
10 06/28/2022 03:18:37 -0.02, -75.33 -0.18, -76.18 96.26 80
